Weather in Dyadkovichi

Russia / Bryansk Oblast     53°25′49″N   33°46′55″E
temp.,
°C
wind,
m/s
gust,
m/s
humid.,
%
clouds,
%
prec.,
mm/h
press.,
hPa
HPBL,
m
26 july, mon
mon2600:00+16s22780 0.3 102222
03:00+15s22835 0.3 102234
06:00+15s129014 0.0 102236
09:00+21s23663 0.0 1022424
12:00+26s33525 0.0 10221234
15:00+27ssw344619 0.0 10211799
18:00+26ssw13529 0.0 10211137
21:00+20s347120 0.2 102164
27 july, tue
tue2700:00+18sse227513 0.1 102217
03:00+17s228025 0.1 102221
06:00+17s238193 0.0 102248
09:00+23sse24595 0.0 1021386
12:00+27s34456 0.0 1020928
15:00+28s354118 0.0 10192009
18:00+28s244820 0.0 1017580
21:00+20se386477 0.0 1017140
28 july, wed
wed2800:00+18sse33735 0.0 101752
03:00+19ssw41273100 0.0 1016381
06:00+19s31083100 0.1 1015309
09:00+17se41196100 2.6 1014322
12:00+21sse5876100 0.8 1013653
15:00+26ssw366248 1.2 10111270
18:00+22wnw3891100 5.4 1010400
21:00+20wsw229410 5.7 101021
29 july, thu
thu2900:00+18w22965 0.0 101027
03:00+17wsw23965 0.0 101065
06:00+17wnw229639 0.0 101046
09:00+22sw238198 0.0 1010354
12:00+27wsw245198 0.0 10091492
15:00+24wnw2268100 0.0 100958
18:00+22wnw487693 0.0 1008254
21:00+19wsw119291 0.1 100911
30 july, fri
fri3000:00+17wnw239651 0.0 100944
03:00+16wnw22971 0.0 100931
06:00+16wnw24925 0.0 100984
09:00+22wnw24710 0.0 1010491
12:00+26w355447 0.1 10091682
15:00+28w46394 0.1 10082419
18:00+26wsw4746100 0.0 1008632
21:00+20ssw3458100 0.0 100862